Theta_e
309 309 308 308 309 308 307 305 307 308 309 310 311 311 311 309 308 313 311 310 312 311 314 325 323 324 328 330 331 331 333 333 332 331 331 331 331 331 331 331 330 331 331 331 330
307 308 308 308 308 308 307 308 308 307 307 308 309 308 308 308 312 313 311 308 307 309 312 323 323 322 328 330 331 333 333 332 331 331 331 331 330 330 331 332 331 330 330 330 330
307 307 307 307 308 307 306 307 308 308 308 307 308 308 308 310 313 313 314 310 309 306 310 316 319 321 323 326 330 333 334 332 332 331 331 331 331 330 331 332 332 331 330 330 330
305 306 306 307 307 307 307 307 307 308 308 308 307 307 306 311 312 319 310 308 314 322 313 315 321 321 323 323 328 333 332 332 332 331 331 332 332 331 331 331 330 329 328 328 330
304 305 305 306 306 306 306 306 307 307 305 307 308 307 309 312 311 311 314 313 311 321 316 317 318 323 327 326 325 329 330 330 330 331 332 331 332 332 331 329 329 327 326 327 327
303 304 305 305 306 306 306 306 306 305 306 307 307 307 309 310 309 310 310 311 311 313 320 317 317 321 327 328 327 327 327 327 329 331 331 331 331 330 329 327 326 325 325 325 325
304 304 305 305 305 306 305 305 305 302 305 307 308 309 310 308 307 308 308 309 311 310 316 318 316 320 324 326 326 326 327 327 327 327 328 328 328 327 325 324 324 324 325 325 325
304 304 304 305 305 306 306 304 302 302 306 308 309 309 310 306 306 307 308 310 310 310 310 312 315 318 321 322 322 324 326 327 327 326 325 325 326 326 325 325 325 326 326 326 325
304 304 304 304 305 305 304 302 301 305 306 309 309 310 308 307 307 307 307 309 310 311 312 310 311 316 319 320 324 325 327 328 327 326 324 324 326 326 325 325 326 326 327 326 325
304 304 304 304 305 304 302 303 306 307 308 309 308 308 307 305 307 309 309 311 312 312 314 312 312 315 318 322 328 326 327 327 329 328 322 323 324 325 324 324 327 327 327 326 326
305 304 304 304 305 304 304 305 308 309 307 308 307 309 307 306 306 307 309 312 312 313 315 314 313 316 318 320 323 325 327 328 326 326 325 325 326 326 327 327 328 328 328 327 327
300 301 303 304 303 303 304 306 306 306 307 306 307 306 304 305 306 307 307 311 314 314 314 315 314 317 317 319 319 321 324 326 326 326 326 324 326 327 328 328 328 328 327 327 328
301 301 302 303 302 305 304 305 305 305 308 306 307 307 307 307 307 307 307 308 313 314 314 316 316 315 316 318 319 320 321 323 324 325 324 325 325 327 328 328 328 327 326 326 326
303 303 303 302 304 305 305 305 305 306 309 305 309 310 310 310 311 310 310 308 311 314 314 314 316 316 316 316 319 321 320 320 321 322 323 323 330 329 329 330 329 328 327 326 329
304 304 303 301 304 305 304 304 305 306 304 307 311 309 310 311 310 311 310 310 309 312 314 315 314 316 317 317 317 319 320 320 320 322 324 324 327 329 329 330 329 328 327 326 331
303 303 302 304 303 303 304 304 306 309 305 306 308 308 308 309 310 310 311 312 309 309 314 314 315 315 317 316 317 317 319 321 322 323 327 325 327 330 331 331 330 329 325 325 334
303 301 304 303 304 302 303 305 308 307 304 305 307 307 307 308 309 310 310 313 312 310 311 315 314 314 315 316 317 317 320 324 326 327 328 326 329 330 329 327 329 326 325 332 334
301 303 304 304 304 303 304 307 304 302 303 306 306 305 305 307 307 308 309 315 313 310 311 315 318 315 315 316 317 319 322 324 326 330 330 328 330 330 325 327 327 325 325 333 334
302 305 305 305 304 304 308 307 304 304 305 305 305 304 304 306 305 305 308 309 315 312 312 315 318 316 315 315 318 320 323 322 327 328 327 329 328 325 324 324 324 324 324 332 334
303 305 304 304 304 305 307 306 305 305 305 305 305 304 306 305 305 305 308 310 311 313 315 316 321 318 315 315 317 320 321 324 325 331 331 327 325 326 325 326 326 330 329 331 335
304 307 304 304 303 306 311 307 306 305 306 306 305 305 305 304 304 304 307 309 310 311 313 316 318 320 317 316 317 319 322 323 325 325 329 327 325 324 325 326 330 331 332 335 335
304 308 303 304 308 305 307 305 305 306 306 306 306 306 306 306 307 308 308 309 309 309 314 315 319 322 319 317 318 318 320 323 324 326 323 323 322 327 328 331 329 331 335 335 334
306 305 304 305 309 308 305 304 305 306 306 307 307 306 307 308 308 308 309 309 309 311 314 315 319 323 322 319 317 319 320 322 323 325 325 323 321 324 328 330 331 334 334 334 334
306 308 306 305 304 303 304 305 305 304 306 306 308 307 308 308 307 308 308 311 310 311 311 313 318 322 322 319 318 319 319 321 322 323 323 322 320 325 328 330 332 334 334 334 334
306 307 305 308 305 303 304 304 305 305 305 305 308 308 307 308 308 308 310 309 312 312 313 315 317 319 319 318 318 322 318 318 321 321 321 320 320 320 327 326 331 333 334 335 335
306 305 304 305 304 303 305 306 305 305 305 305 306 306 306 307 308 309 308 309 312 310 315 314 320 318 319 317 318 320 320 318 318 320 320 319 320 320 321 321 327 332 334 335 335
302 303 303 305 304 304 305 305 305 305 306 305 306 307 308 308 308 309 309 309 310 311 313 316 317 319 319 318 318 321 320 320 319 319 319 320 320 320 323 322 326 330 333 335 335
Wind_Speed
15 16 17 18 18 20 21 19 17 16 16 16 16 18 22 22 22 13 16 12 5 11 6 9 14 12 13 16 13 13 10 14 19 15 12 6 10 5 3 10 12 9 12 12 13
16 16 16 17 18 20 19 19 18 18 16 17 18 18 20 19 20 19 19 20 20 15 13 17 15 16 15 16 12 15 15 22 21 14 16 15 10 11 9 13 17 17 15 12 13
18 17 17 16 16 16 17 18 17 17 17 16 15 15 15 14 11 10 7 7 15 25 25 22 17 15 19 20 21 21 25 21 23 19 19 19 20 17 17 15 21 19 18 17 19
17 18 18 19 18 17 16 17 18 17 16 16 16 14 14 7 9 8 11 5 7 9 23 26 18 20 21 26 25 29 25 23 25 25 19 19 23 21 19 19 23 21 19 21 23
16 17 18 19 21 21 21 19 17 16 17 17 14 12 9 9 16 3 9 9 7 3 22 25 24 23 28 24 26 30 25 25 22 25 23 21 23 28 25 21 24 20 20 21 21
17 17 18 19 20 21 22 22 22 22 19 15 13 12 12 18 7 12 12 13 10 10 11 22 15 22 23 28 30 25 27 29 27 25 22 23 26 25 22 23 23 21 21 21 21
19 19 20 20 21 21 23 23 24 23 22 17 13 10 14 23 14 13 18 17 10 10 13 16 28 11 17 23 24 25 25 24 22 22 25 21 26 26 21 23 22 18 19 20 20
20 21 21 21 21 22 24 26 26 27 24 16 12 11 10 11 15 22 20 21 19 19 14 12 15 21 18 15 14 21 25 24 25 22 22 18 28 23 18 20 18 17 18 20 22
21 22 22 22 22 23 26 29 26 15 10 6 8 11 11 5 10 16 15 17 16 19 17 15 16 18 15 19 18 25 26 32 25 21 18 21 32 23 17 17 15 17 20 21 21
22 22 22 23 24 26 31 22 7 3 1 5 6 6 9 10 3 5 10 11 12 13 13 18 12 15 19 20 29 25 26 27 28 21 15 24 30 21 20 19 21 18 22 19 21
23 24 24 23 23 26 19 12 5 7 8 12 9 16 19 19 12 13 5 7 10 16 24 23 20 28 42 35 27 26 30 30 23 22 21 27 29 23 19 18 23 21 21 22 21
25 25 24 24 25 23 10 8 3 6 12 18 24 26 32 29 16 19 14 10 12 22 26 20 30 47 29 29 29 29 29 30 24 23 23 24 29 26 24 22 24 22 23 20 20
26 26 25 23 21 4 13 7 2 10 7 16 12 15 13 12 16 22 19 20 19 20 28 34 43 26 32 30 30 31 30 25 27 20 22 24 29 31 26 26 23 18 18 23 21
28 28 26 24 10 8 8 2 7 8 6 6 5 5 6 6 6 18 14 22 19 24 24 31 35 29 32 35 33 31 25 25 25 21 23 22 23 28 22 22 23 23 20 20 15
29 29 25 17 14 7 6 6 7 5 6 6 6 5 2 6 9 7 9 19 28 23 16 31 29 33 31 43 30 33 22 23 24 23 25 28 19 23 19 21 25 20 19 18 9
32 29 19 7 6 9 9 8 6 5 9 1 4 2 5 1 4 10 10 12 16 27 24 28 18 25 42 20 29 22 17 18 18 17 21 24 21 24 24 27 25 22 15 15 8
33 18 5 1 4 7 6 7 5 8 7 0 6 7 13 2 9 5 9 11 13 21 27 22 29 19 21 28 25 27 21 11 13 14 17 19 19 21 24 17 25 18 9 9 9
26 4 5 4 5 4 4 4 8 4 5 15 11 17 17 4 3 8 14 12 15 24 20 21 20 31 21 30 22 30 27 14 19 15 15 20 11 14 10 22 25 22 12 9 11
16 1 6 10 3 4 4 5 7 10 8 10 15 16 15 4 6 7 3 6 9 20 19 18 28 30 22 27 28 29 24 24 11 10 7 13 14 16 17 21 16 15 16 13 10
11 3 10 9 2 2 3 5 5 9 13 13 16 11 14 10 9 9 2 3 12 13 14 6 12 25 35 25 27 28 24 21 15 18 16 12 10 8 8 11 13 13 14 13 13
5 3 7 4 4 2 3 5 9 10 11 7 11 12 15 15 15 12 2 4 5 13 12 13 8 16 27 24 27 18 23 19 18 13 14 7 8 9 17 10 12 12 13 14 16
5 2 6 3 2 1 5 9 9 11 9 9 8 10 12 12 12 5 1 3 8 8 8 4 6 12 26 24 24 27 21 26 13 20 11 6 4 1 7 2 10 7 10 15 17
6 3 2 7 3 4 6 9 5 12 11 7 10 6 11 12 6 4 2 7 10 5 5 4 9 10 15 21 21 27 23 26 17 15 19 12 3 6 5 6 4 7 13 16 18
4 4 1 2 2 7 10 7 9 8 8 13 10 12 11 10 8 7 9 8 6 6 7 6 8 16 7 21 15 25 25 26 23 11 12 15 13 8 8 8 7 8 13 17 18
3 2 3 4 4 8 13 9 13 8 7 10 4 6 11 7 16 7 8 11 5 6 6 3 12 18 13 6 6 12 24 24 26 21 16 12 18 13 11 8 7 8 16 18 19
3 3 4 10 8 9 6 7 10 11 7 10 10 15 14 14 15 18 15 9 2 4 6 4 5 13 17 13 7 7 9 25 21 23 19 14 15 15 15 11 4 6 16 18 18
2 3 3 7 5 7 5 7 13 15 11 8 13 16 16 12 13 16 15 14 14 13 11 5 4 9 18 16 6 11 13 17 21 21 20 20 19 13 5 8 8 3 14 16 17
Wind_Direction
357 354 352 351 346 346 348 346 341 336 336 332 328 325 321 323 315 295 252 241 242 220 191 184 195 217 228 233 224 227 235 246 245 247 246 168 250 157 302 276 286 259 270 286 314
355 352 350 345 343 342 340 339 341 335 334 334 328 324 323 333 318 282 260 245 248 231 217 207 198 193 223 231 216 218 227 242 253 263 261 270 259 280 278 278 280 274 243 247 266
351 349 345 343 340 334 330 330 328 330 329 325 322 322 319 332 283 248 214 181 221 235 227 229 224 211 228 234 224 229 246 241 245 250 263 288 279 277 274 267 268 290 308 293 285
344 342 340 338 337 333 328 324 322 323 319 317 323 323 324 315 251 125 167 109 2 235 211 216 215 219 231 235 231 242 249 244 261 261 256 262 275 278 267 272 277 291 294 292 291
343 338 335 334 333 329 325 322 318 316 310 310 309 315 324 232 244 225 238 309 336 184 206 204 211 218 228 238 244 243 249 252 250 264 271 264 265 269 275 280 278 292 288 283 281
343 337 336 333 328 324 320 318 317 311 303 292 289 298 271 252 277 262 281 290 272 253 217 215 226 229 240 237 243 250 249 248 255 255 260 262 263 269 271 274 280 286 289 291 289
342 340 336 332 327 322 317 315 310 311 300 287 268 258 262 255 270 279 278 275 257 249 236 216 219 228 225 249 251 254 253 254 245 250 253 264 264 255 266 268 273 278 287 286 288
340 338 335 332 328 323 318 315 312 307 294 275 244 236 259 262 260 265 267 263 250 245 242 246 224 238 245 264 262 242 239 246 233 228 243 239 265 264 271 271 275 284 289 291 290
337 335 333 334 330 326 320 315 309 297 300 229 192 214 270 223 236 257 250 252 244 228 229 233 227 228 224 233 246 226 234 231 242 237 242 231 257 255 255 272 273 279 292 297 293
335 334 334 333 331 332 328 325 302 267 321 180 242 222 237 244 244 261 268 234 238 214 206 212 212 214 223 214 227 222 229 245 257 234 223 241 251 255 257 270 276 286 293 292 290
337 334 334 336 333 331 335 322 247 207 219 262 279 249 286 276 271 260 242 210 214 222 206 194 201 214 218 219 238 249 245 247 237 243 244 249 256 257 261 270 276 286 285 289 289
349 343 338 334 331 327 335 339 14 337 294 274 259 262 263 272 277 270 255 226 197 218 208 189 214 222 218 224 227 239 245 246 249 239 236 251 267 275 270 272 278 280 282 281 284
345 344 341 333 331 336 332 299 320 331 263 284 263 259 259 241 249 255 244 225 231 230 212 214 220 218 219 222 226 227 234 240 251 255 252 257 266 267 266 259 273 268 262 273 275
341 336 336 329 301 323 300 255 293 323 282 256 188 197 186 218 233 237 253 223 224 236 229 229 234 217 222 222 218 229 219 240 255 253 251 247 268 264 272 269 265 268 276 268 258
337 330 324 317 294 289 317 299 305 247 282 102 138 102 132 239 332 85 181 224 232 222 223 224 227 227 221 223 215 236 228 234 241 249 260 249 256 265 261 266 265 261 262 263 241
335 328 317 322 271 284 295 291 263 231 245 224 154 285 247 203 309 356 292 216 246 241 241 237 223 224 232 219 221 223 218 226 237 245 245 245 252 259 259 265 268 267 264 237 182
338 341 34 39 349 311 296 262 232 247 34 192 326 320 307 342 307 328 341 262 219 211 229 228 240 235 236 211 205 202 194 202 220 225 246 242 249 254 254 264 246 259 254 163 170
342 31 358 342 301 289 241 206 254 307 270 333 323 302 281 8 304 287 327 320 217 231 219 222 223 223 213 211 188 193 190 203 215 231 242 218 252 240 256 248 251 255 240 155 171
352 273 4 351 302 211 245 234 335 355 350 315 308 274 273 215 308 277 341 304 298 231 239 223 231 193 221 211 197 190 208 212 239 230 270 222 228 271 257 254 248 238 219 184 172
334 299 24 351 39 243 280 310 323 330 312 296 285 287 297 310 308 313 72 55 315 339 326 268 256 224 199 206 209 196 194 197 219 234 228 242 240 239 257 235 224 215 198 185 165
323 270 25 39 48 306 315 312 323 327 324 307 302 294 289 291 282 287 206 133 283 320 301 283 256 223 185 200 190 191 197 212 209 227 209 228 223 201 238 244 193 191 181 167 167
318 324 13 324 306 181 323 333 330 319 326 292 294 289 286 293 294 270 269 210 204 301 302 274 286 271 198 205 216 200 203 199 197 198 247 216 229 290 242 303 209 210 149 158 163
341 297 345 307 342 336 327 301 288 310 337 331 306 318 305 298 291 301 335 198 195 228 306 357 232 224 212 198 207 195 207 195 211 201 206 221 229 208 135 138 144 139 150 155 155
330 329 348 1 349 333 331 306 327 328 314 317 301 297 332 314 293 286 309 43 257 256 258 252 251 253 190 195 191 202 203 193 206 205 187 212 208 180 137 120 134 144 158 160 161
12 10 333 306 315 320 297 295 305 353 323 310 282 313 339 315 316 297 354 312 315 196 249 279 242 227 259 313 300 275 206 205 207 216 226 194 228 236 162 64 44 167 168 166 163
345 340 324 292 284 301 292 305 317 341 314 306 306 326 316 301 295 295 310 309 324 307 297 279 302 263 250 238 240 243 247 206 208 211 227 232 236 239 278 294 270 174 178 173 171
286 265 272 290 289 309 303 319 312 316 292 287 312 309 300 320 321 302 291 288 275 286 289 294 308 240 233 213 228 230 209 222 210 212 217 221 231 253 267 226 249 155 187 185 178